Date String (YYYY-MM-DD hh:mm:ss) UTC,Instrument flags,absolute air pressure of the measurement (hPa),sample flow rate (lpm),inlet stack bypass flow (lpm),air temperature of the measurement (°C),ambient temperature measured by the external sensor (°C),aerosol sample conditioner tube jacket temperature (°C),OPC LED temperature (°C),internal box temperature (°C),relative humidity of the measurement (%),span deviation,mass concentration of particles derived from Lorenz-Mie calculation of OPC scattering (μg/m³),mass concentration of particles derived from Lorenz-Mie calculation of OPC scattering (μg/m³),mass concentration of particles derived from Lorenz-Mie calculation of OPC scattering (μg/m³)
DateTimeUTC,F1_M11,P_M11,Q1_M11,Q2_M11,T1_M11,T2_M11,T3_M11,T4_M11,T5_M11,U1_M11,ZSPAN_M11,X0_M11,X2_M11,X1_M11
2023-11-18 05:00:00,SystemResetWarning,0831.6,5.00,000.00,025.3,024.1,000.0,033.7,026.6,16.5,0000.0,0010.12,0003.60,0002.96
2023-11-18 05:01:00,SystemResetWarning,0831.6,4.99,000.00,025.3,024.1,000.0,033.7,026.6,16.6,0000.0,0009.62,0003.60,0002.96
2023-11-18 05:02:00,SystemResetWarning,0831.6,5.00,000.00,025.3,024.1,000.0,033.7,026.6,16.5,0000.0,0009.92,0003.60,0002.98
2023-11-18 05:03:00,SystemResetWarning,0831.6,5.00,000.00,025.3,024.1,000.0,033.7,026.6,16.5,0000.0,0009.07,0003.60,0002.99
2023-11-18 05:04:00,SystemResetWarning,0831.5,5.00,000.00,025.3,024.1,000.0,033.7,026.6,16.5,0000.0,0008.61,0003.58,0003.00
2023-11-18 05:05:00,SystemResetWarning,0831.5,5.00,000.00,025.3,024.1,000.0,033.7,026.6,16.5,0000.0,0008.63,0003.54,0003.00
2023-11-18 05:06:00,SystemResetWarning,0831.5,5.00,000.00,025.3,024.1,000.0,033.7,026.6,16.5,0000.0,0009.24,0003.53,0003.01
2023-11-18 05:07:00,SystemResetWarning,0831.5,5.00,000.00,025.3,024.1,000.0,033.7,026.6,16.4,0000.0,0009.76,0003.52,0003.00
2023-11-18 05:08:00,SystemResetWarning,0831.5,5.00,000.00,025.3,024.1,000.0,033.6,026.6,16.5,0000.0,0010.20,0003.53,0003.00
2023-11-18 05:09:00,SystemResetWarning,0831.5,5.00,000.00,025.2,024.1,000.0,033.6,026.6,16.5,0000.0,0010.32,0003.55,0003.01
2023-11-18 05:10:00,SystemResetWarning,0831.5,5.00,000.00,025.2,024.1,000.0,033.6,026.6,16.5,0000.0,0010.63,0003.58,0003.04
2023-11-18 05:11:00,SystemResetWarning,0831.5,5.00,000.00,025.2,024.1,000.0,033.6,026.6,16.5,0000.0,0010.30,0003.60,0003.07
2023-11-18 05:12:00,SystemResetWarning,0831.5,4.99,000.00,025.2,024.1,000.0,033.6,026.6,16.4,0000.0,0010.50,0003.64,0003.09
2023-11-18 05:13:00,SystemResetWarning,0831.5,5.00,000.00,025.2,024.1,000.0,033.6,026.6,16.3,0000.0,0010.66,0003.68,0003.10
2023-11-18 05:14:00,SystemResetWarning,0831.5,4.99,000.00,025.2,024.1,000.0,033.6,026.5,16.3,0000.0,0011.00,0003.68,0003.10
2023-11-18 05:15:00,SystemResetWarning,0831.5,5.00,000.00,025.2,024.0,000.0,033.6,026.6,16.3,0000.0,0011.07,0003.69,0003.10
2023-11-18 05:16:00,SystemResetWarning,0831.5,5.01,000.00,025.2,024.0,000.0,033.6,026.6,16.4,0000.0,0011.19,0003.73,0003.11
2023-11-18 05:17:00,SystemResetWarning,0831.5,5.01,000.00,025.2,024.0,000.0,033.6,026.6,16.3,0000.0,0011.31,0003.78,0003.11
2023-11-18 05:18:00,SystemResetWarning,0831.5,5.00,000.00,025.2,024.0,000.0,033.6,026.6,16.3,0000.0,0011.31,0003.82,0003.12
2023-11-18 05:19:00,SystemResetWarning,0831.6,5.00,000.00,025.2,024.0,000.0,033.6,026.6,16.2,0000.0,0010.42,0003.81,0003.13
2023-11-18 05:20:00,SystemResetWarning,0831.6,5.01,000.00,025.2,024.0,000.0,033.6,026.6,16.2,0000.0,0010.15,0003.79,0003.14
2023-11-18 05:21:00,SystemResetWarning,0831.6,5.01,000.00,025.2,024.0,000.0,033.6,026.6,16.2,0000.0,0009.67,0003.76,0003.13
2023-11-18 05:22:00,SystemResetWarning,0831.6,5.00,000.00,025.2,024.0,000.0,033.6,026.6,16.1,0000.0,0009.60,0003.76,0003.12
2023-11-18 05:23:00,SystemResetWarning,0831.6,4.99,000.00,025.2,024.0,000.0,033.6,026.6,16.1,0000.0,0009.41,0003.73,0003.12
2023-11-18 05:24:00,SystemResetWarning,0831.6,4.99,000.00,025.2,024.0,000.0,033.6,026.6,16.2,0000.0,0008.85,0003.68,0003.11
2023-11-18 05:25:00,SystemResetWarning,0831.6,5.00,000.00,025.2,024.0,000.0,033.6,026.6,16.2,0000.0,0009.06,0003.67,0003.12
2023-11-18 05:26:00,SystemResetWarning,0831.6,5.01,000.00,025.2,024.0,000.0,033.6,026.6,16.1,0000.0,0008.91,0003.67,0003.11
2023-11-18 05:27:00,SystemResetWarning,0831.6,5.01,000.00,025.2,024.0,000.0,033.6,026.6,16.1,0000.0,0008.90,0003.65,0003.11
2023-11-18 05:28:00,SystemResetWarning,0831.6,5.01,000.00,025.2,024.0,000.0,033.6,026.6,16.1,0000.0,0009.19,0003.62,0003.11
2023-11-18 05:29:00,SystemResetWarning,0831.6,4.99,000.00,025.2,024.0,000.0,033.6,026.6,16.1,0000.0,0008.75,0003.62,0003.10
2023-11-18 05:30:00,SystemResetWarning,0831.6,5.00,000.00,025.2,024.0,000.0,033.6,026.6,16.1,0000.0,0008.80,0003.61,0003.08
2023-11-18 05:31:00,SystemResetWarning,0831.6,5.00,000.00,025.2,024.0,000.0,033.6,026.6,16.1,0000.0,0009.01,0003.62,0003.05
2023-11-18 05:32:00,SystemResetWarning,0831.6,4.99,000.00,025.2,024.1,000.0,033.6,026.6,16.1,0000.0,0009.37,0003.62,0003.03
2023-11-18 05:33:00,SystemResetWarning,0831.6,4.99,000.00,025.2,024.1,000.0,033.6,026.5,16.1,0000.0,0010.06,0003.59,0003.01
2023-11-18 05:34:00,SystemResetWarning,0831.6,5.00,000.00,025.2,024.1,000.0,033.6,026.5,16.2,0000.0,0010.86,0003.60,0003.01
2023-11-18 05:35:00,SystemResetWarning,0831.6,5.00,000.00,025.2,024.0,000.0,033.6,026.5,16.4,0000.0,0010.89,0003.59,0002.98
2023-11-18 05:36:00,SystemResetWarning,0831.6,5.01,000.00,025.2,024.0,000.0,033.5,026.6,16.3,0000.0,0010.61,0003.59,0002.95
2023-11-18 05:37:00,SystemResetWarning,0831.5,5.01,000.00,025.2,024.0,000.0,033.5,026.6,16.6,0000.0,0010.96,0003.57,0002.93
2023-11-18 05:38:00,SystemResetWarning,0831.5,4.99,000.00,025.2,024.0,000.0,033.5,026.6,16.7,0000.0,0011.27,0003.53,0002.92
2023-11-18 05:39:00,SystemResetWarning,0831.5,4.99,000.00,025.2,024.0,000.0,033.5,026.6,16.5,0000.0,0010.47,0003.51,0002.90
2023-11-18 05:40:00,SystemResetWarning,0831.5,4.99,000.00,025.2,024.0,000.0,033.5,026.6,16.6,0000.0,0011.32,0003.53,0002.88
2023-11-18 05:41:00,SystemResetWarning,0831.5,5.00,000.00,025.2,024.0,000.0,033.5,026.5,16.6,0000.0,0011.73,0003.52,0002.89
2023-11-18 05:42:00,SystemResetWarning,0831.5,5.00,000.00,025.2,024.0,000.0,033.5,026.6,16.8,0000.0,0012.13,0003.51,0002.88
2023-11-18 05:43:00,SystemResetWarning,0831.5,5.00,000.00,025.2,024.0,000.0,033.5,026.6,16.7,0000.0,0012.30,0003.54,0002.92
2023-11-18 05:44:00,SystemResetWarning,0831.5,5.00,000.00,025.2,024.1,000.0,033.5,026.6,16.7,0000.0,0012.85,0003.60,0002.95
2023-11-18 05:45:00,SystemResetWarning,0831.5,5.01,000.00,025.2,024.1,000.0,033.5,026.6,16.7,0000.0,0011.94,0003.60,0002.93
2023-11-18 05:46:00,SystemResetWarning,0831.5,5.00,000.00,025.2,024.1,000.0,033.5,026.6,16.8,0000.0,0011.98,0003.63,0002.95
2023-11-18 05:47:00,SystemResetWarning,0831.5,4.99,000.00,025.2,024.1,000.0,033.5,026.5,16.6,0000.0,0012.01,0003.63,0002.96
2023-11-18 05:48:00,SystemResetWarning,0831.5,5.00,000.00,025.2,024.1,000.0,033.5,026.5,16.5,0000.0,0011.48,0003.65,0002.97
2023-11-18 05:49:00,SystemResetWarning,0831.5,4.99,000.00,025.2,024.1,000.0,033.5,026.5,16.5,0000.0,0011.72,0003.72,0003.00
2023-11-18 05:50:00,SystemResetWarning,0831.5,5.00,000.00,025.2,024.0,000.0,033.5,026.5,16.5,0000.0,0011.80,0003.78,0003.01
2023-11-18 05:51:00,SystemResetWarning,0831.4,4.99,000.00,025.1,024.0,000.0,033.5,026.5,16.6,0000.0,0011.07,0003.76,0003.02
2023-11-18 05:52:00,SystemResetWarning,0831.5,5.00,000.00,025.1,024.0,000.0,033.5,026.5,16.6,0000.0,0010.53,0003.77,0003.02
2023-11-18 05:53:00,SystemResetWarning,0831.4,5.00,000.00,025.1,024.0,000.0,033.5,026.5,16.6,0000.0,0011.36,0003.76,0003.02
2023-11-18 05:54:00,SystemResetWarning,0831.4,5.00,000.00,025.1,024.0,000.0,033.5,026.5,16.7,0000.0,0011.12,0003.73,0002.98
2023-11-18 05:55:00,SystemResetWarning,0831.4,5.00,000.00,025.1,024.0,000.0,033.5,026.5,16.7,0000.0,0010.02,0003.71,0002.94
2023-11-18 05:56:00,SystemResetWarning,0831.4,5.00,000.00,025.1,024.0,000.0,033.5,026.5,16.8,0000.0,0009.91,0003.67,0002.93
2023-11-18 05:57:00,SystemResetWarning,0831.4,5.00,000.00,025.1,024.0,000.0,033.5,026.5,16.8,0000.0,0010.10,0003.64,0002.92
2023-11-18 05:58:00,SystemResetWarning,0831.4,5.00,000.00,025.1,024.0,000.0,033.5,026.5,16.8,0000.0,0010.06,0003.67,0002.92
2023-11-18 05:59:00,SystemResetWarning,0831.4,5.00,000.00,025.1,024.0,000.0,033.5,026.5,16.8,0000.0,0010.34,0003.70,0002.90
